FW1349 Weather Reports


Display with metric or nautical units.
time (UTC)temp
F
wind
direction
speed
MPH
gust
MPH
rain 1hr
in
rain 24hr
in
rain mn
in
humidity
%
barometer
mb
20200331000644 58 102 2.0 5.0 0.00 0.00 0.00 33 1020.4
20200331000307 58 115 1.0 4.0 0.00 0.00 0.00 32 1020.4
20200330235649 58 115 1.0 3.0 0.00 0.00 0.00 32 1020.4
20200330235319 59 86 1.0 3.0 0.00 0.00 0.00 32 1020.3
20200330234755 59 184 1.0 3.0 0.00 0.00 0.00 32 1020.2
20200330234207 59 186 1.0 5.0 0.00 0.00 0.00 31 1020.2
20200330233653 59 186 1.0 5.0 0.00 0.00 0.00 30 1020.2
20200330233247 60 104 1.0 4.0 0.00 0.00 0.00 30 1020.4
20200330232819 60 127 1.0 3.0 0.00 0.00 0.00 29 1020.4
20200330232244 60 179 1.0 4.0 0.00 0.00 0.00 30 1020.5
20200330231723 60 190 1.0 3.0 0.00 0.00 0.00 29 1020.5
20200330231226 60 109 1.0 3.0 0.00 0.00 0.00 30 1020.6
20200330230822 60 140 0.0 1.0 0.00 0.00 0.00 29 1020.5
20200330230228 61 112 0.0 0.0 0.00 0.00 0.00 29 1020.5
20200330225659 61 148 0.0 1.0 0.00 0.00 0.00 29 1020.5
20200330225218 61 232 0.0 0.0 0.00 0.00 0.00 29 1020.6
20200330224804 61 232 0.0 1.0 0.00 0.00 0.00 28 1020.6
20200330224254 62 195 0.0 2.0 0.00 0.00 0.00 27 1020.7
20200330223705 62 195 0.0 2.0 0.00 0.00 0.00 27 1020.7
20200330223254 62 204 0.0 1.0 0.00 0.00 0.00 27 1020.8
20200330222810 62 256 0.0 0.0 0.00 0.00 0.00 26 1020.8
20200330222258 63 123 0.0 0.0 0.00 0.00 0.00 27 1020.8
20200330221819 63 131 0.0 0.0 0.00 0.00 0.00 26 1021.0
20200330221305 63 239 0.0 0.0 0.00 0.00 0.00 26 1021.0
20200330220818 63 142 0.0 0.0 0.00 0.00 0.00 28 1021.1
20200330220226 63 210 0.0 0.0 0.00 0.00 0.00 27 1021.2
20200330215811 64 252 0.0 0.0 0.00 0.00 0.00 26 1021.2
20200330215145 63 190 0.0 0.0 0.00 0.00 0.00 28 1021.3
20200330214717 63 192 0.0 0.0 0.00 0.00 0.00 28 1021.3
20200330214305 63 78 0.0 0.0 0.00 0.00 0.00 25 1021.4
20200330213704 63 207 0.0 0.0 0.00 0.00 0.00 27 1021.4
20200330213241 63 202 0.0 0.0 0.00 0.00 0.00 27 1021.5
20200330212758 63 212 0.0 0.0 0.00 0.00 0.00 26 1021.5
20200330212309 63 223 0.0 0.0 0.00 0.00 0.00 29 1021.5
20200330211818 64 217 0.0 0.0 0.00 0.00 0.00 27 1021.6
20200330211218 64 238 0.0 0.0 0.00 0.00 0.00 28 1021.7
20200330210747 63 256 0.0 0.0 0.00 0.00 0.00 25 1021.6
20200330210201 63 125 0.0 0.0 0.00 0.00 0.00 28 1021.6
20200330205731 62 195 0.0 0.0 0.00 0.00 0.00 29 1021.7
20200330205251 62 244 0.0 1.0 0.00 0.00 0.00 26 1021.7
20200330205047 62 248 0.0 1.0 0.00 0.00 0.00 27 1021.7
20200330204547 61 240 0.0 0.0 0.00 0.00 0.00 26 1021.8
20200330204221 62 261 0.0 0.0 0.00 0.00 0.00 25 1021.9
20200330203713 62 271 0.0 1.0 0.00 0.00 0.00 25 1022.0
20200330203207 63 243 0.0 6.0 0.00 0.00 0.00 26 1022.0
20200330202702 63 246 0.0 0.0 0.00 0.00 0.00 25 1022.0
20200330202309 63 339 0.0 0.0 0.00 0.00 0.00 24 1022.1
20200330202135 63 78 0.0 0.0 0.00 0.00 0.00 25 1022.1
20200330201632 62 175 0.0 0.0 0.00 0.00 0.00 27 1022.2
20200330201237 62 250 0.0 0.0 0.00 0.00 0.00 26 1022.1
20200330200809 62 288 0.0 0.0 0.00 0.00 0.00 25 1022.1
20200330200306 62 32 0.0 0.0 0.00 0.00 0.00 24 1022.3
20200330195811 62 161 0.0 0.0 0.00 0.00 0.00 26 1022.4
20200330195240 62 225 0.0 0.0 0.00 0.00 0.00 29 1022.4
20200330194723 61 283 0.0 0.0 0.00 0.00 0.00 26 1022.5
20200330194244 61 269 0.0 0.0 0.00 0.00 0.00 26 1022.5
20200330193724 61 259 0.0 0.0 0.00 0.00 0.00 27 1022.6
20200330193302 61 300 0.0 3.0 0.00 0.00 0.00 26 1022.7
20200330192742 61 284 0.0 4.0 0.00 0.00 0.00 28 1022.8
20200330192245 60 278 0.0 0.0 0.00 0.00 0.00 27 1022.7
20200330191724 60 243 0.0 0.0 0.00 0.00 0.00 26 1022.8
20200330191145 60 301 0.0 0.0 0.00 0.00 0.00 27 1022.9
20200330190718 60 286 0.0 0.0 0.00 0.00 0.00 28 1022.9
20200330190149 60 282 0.0 0.0 0.00 0.00 0.00 26 1022.9
20200330185804 60 251 0.0 0.0 0.00 0.00 0.00 25 1022.9
20200330185227 60 258 0.0 2.0 0.00 0.00 0.00 28 1023.0
20200330184739 60 153 0.0 0.0 0.00 0.00 0.00 29 1023.0
20200330184211 60 70 0.0 0.0 0.00 0.00 0.00 26 1023.0
20200330183704 59 105 0.0 3.0 0.00 0.00 0.00 26 1023.1
20200330183248 59 105 0.0 3.0 0.00 0.00 0.00 27 1023.1
20200330182817 59 77 0.0 0.0 0.00 0.00 0.00 26 1023.1
20200330182245 58 277 0.0 0.0 0.00 0.00 0.00 26 1023.1
20200330181650 58 300 0.0 4.0 0.00 0.00 0.00 26 1023.2
20200330181244 58 88 0.0 4.0 0.00 0.00 0.00 26 1023.2
20200330180745 58 74 0.0 4.0 0.00 0.00 0.00 28 1023.2
20200330180239 57 98 0.0 0.0 0.00 0.00 0.00 27 1023.2
20200330175653 57 67 0.0 0.0 0.00 0.00 0.00 25 1023.3
20200330175255 57 77 0.0 0.0 0.00 0.00 0.00 26 1023.3
20200330174716 57 142 0.0 0.0 0.00 0.00 0.00 28 1023.2
20200330174244 57 290 0.0 0.0 0.00 0.00 0.00 26 1023.3
20200330173715 56 105 0.0 0.0 0.00 0.00 0.00 29 1023.3
20200330173303 56 162 0.0 0.0 0.00 0.00 0.00 27 1023.3
20200330172817 56 205 0.0 0.0 0.00 0.00 0.00 29 1023.4
20200330172309 55 177 0.0 2.0 0.00 0.00 0.00 34 1023.4
20200330171805 55 220 0.0 0.0 0.00 0.00 0.00 31 1023.4
20200330171202 54 98 0.0 2.0 0.00 0.00 0.00 30 1023.4
20200330170816 54 140 0.0 2.0 0.00 0.00 0.00 33 1023.4
20200330170215 54 294 0.0 3.0 0.00 0.00 0.00 36 1023.3
20200330165718 53 296 0.0 0.0 0.00 0.00 0.00 36 1023.3
20200330165142 53 290 0.0 0.0 0.00 0.00 0.00 39 1023.3
20200330164720 53 290 1.0 4.0 0.00 0.00 0.00 39 1023.3
20200330164306 53 265 2.0 4.0 0.00 0.00 0.00 40 1023.4
20200330163716 53 263 1.0 4.0 0.00 0.00 0.00 41 1023.5
20200330163142 52 294 1.0 2.0 0.00 0.00 0.00 42 1023.5
20200330162755 52 252 1.0 3.0 0.00 0.00 0.00 43 1023.3
20200330162209 51 298 2.0 4.0 0.00 0.00 0.00 44 1023.4
20200330161818 51 299 2.0 4.0 0.00 0.00 0.00 45 1023.3
20200330161225 50 288 2.0 3.0 0.00 0.00 0.00 46 1023.2
20200330160652 50 288 2.0 3.0 0.00 0.00 0.00 49 1023.3
20200330160214 49 250 1.0 3.0 0.00 0.00 0.00 53 1023.4
20200330155646 48 248 0.0 2.0 0.00 0.00 0.00 55 1023.3
20200330155210 48 286 1.0 2.0 0.00 0.00 0.00 55 1023.2
20200330154704 47 286 1.0 3.0 0.00 0.00 0.00 56 1023.1
20200330154253 46 286 1.0 4.0 0.00 0.00 0.00 58 1023.2
20200330153755 46 291 1.0 4.0 0.00 0.00 0.00 61 1023.2
20200330153244 44 134 0.0 0.0 0.00 0.00 0.00 61 1023.2
20200330152743 44 134 0.0 2.0 0.00 0.00 0.00 61 1023.1
20200330152157 43 134 1.0 3.0 0.00 0.00 0.00 64 1023.0
20200330151809 43 213 1.0 3.0 0.00 0.00 0.00 66 1022.9
20200330151159 42 182 1.0 2.0 0.00 0.00 0.00 68 1022.9
20200330150821 41 180 1.0 2.0 0.00 0.00 0.00 70 1022.9
20200330150235 41 179 1.0 2.0 0.00 0.00 0.00 71 1022.9
20200330145751 40 179 1.0 2.0 0.00 0.00 0.00 72 1022.8
20200330145313 40 179 1.0 3.0 0.00 0.00 0.00 73 1022.8
20200330144642 39 178 1.0 2.0 0.00 0.00 0.00 77 1022.7
20200330144158 39 177 1.0 2.0 0.00 0.00 0.00 81 1022.7
20200330143710 38 177 1.0 2.0 0.00 0.00 0.00 84 1022.6
20200330143311 38 177 1.0 2.0 0.00 0.00 0.00 87 1022.6
20200330142730 37 177 1.0 2.0 0.00 0.00 0.00 90 1022.6
20200330142216 37 177 1.0 2.0 0.00 0.00 0.00 92 1022.5
20200330141657 36 175 1.0 1.0 0.00 0.00 0.00 93 1022.2
20200330141316 35 175 0.0 1.0 0.00 0.00 0.00 93 1022.1
20200330140749 34 175 0.0 0.0 0.00 0.00 0.00 93 1022.2
20200330140222 33 175 0.0 0.0 0.00 0.00 0.00 93 1022.1
20200330135642 32 175 0.0 0.0 0.00 0.00 0.00 93 1021.9
20200330135304 32 175 0.0 0.0 0.00 0.00 0.00 93 1021.7
20200330134645 31 175 0.0 0.0 0.00 0.00 0.00 93 1021.7
20200330134300 30 175 0.0 0.0 0.00 0.00 0.00 92 1021.6
20200330133734 30 175 0.0 0.0 0.00 0.00 0.00 92 1021.6
20200330133220 29 175 0.0 0.0 0.00 0.00 0.00 92 1021.6
20200330132659 28 175 0.0 0.0 0.00 0.00 0.00 91 1021.5
20200330132147 28 175 0.0 0.0 0.00 0.00 0.00 91 1021.4
20200330131700 28 175 0.0 0.0 0.00 0.00 0.00 91 1021.4
20200330131158 28 175 0.0 0.0 0.00 0.00 0.00 90 1021.4
20200330130734 28 175 0.0 0.0 0.00 0.00 0.00 90 1021.2
20200330130231 27 175 0.0 0.0 0.00 0.00 0.00 90 1021.2
20200330125828 27 175 0.0 0.0 0.00 0.00 0.00 90 1021.1
20200330125156 27 175 0.0 0.0 0.00 0.00 0.00 90 1021.1
20200330124803 27 175 0.0 0.0 0.00 0.00 0.00 90 1021.1
20200330124155 27 175 0.0 0.0 0.00 0.00 0.00 89 1020.8
20200330123744 27 175 0.0 0.0 0.00 0.00 0.00 89 1020.8
20200330123242 27 175 0.0 0.0 0.00 0.00 0.00 89 1020.7
20200330122708 27 175 0.0 0.0 0.00 0.00 0.00 89 1020.7
20200330122319 27 100 0.0 0.0 0.00 0.00 0.00 89 1020.7
20200330121715 27 77 0.0 0.0 0.00 0.00 0.00 89 1020.6
20200330121223 27 77 0.0 0.0 0.00 0.00 0.00 89 1020.4
20200330120759 27 77 0.0 0.0 0.00 0.00 0.00 89 1020.4
20200330120233 27 77 0.0 0.0 0.00 0.00 0.00 89 1020.5
20200330115820 27 77 0.0 0.0 0.00 0.00 0.00 89 1020.5
20200330115246 27 77 0.0 0.0 0.00 0.00 0.00 88 1020.5
20200330114653 28 77 0.0 0.0 0.00 0.00 0.00 88 1020.4
20200330114244 28 77 0.0 0.0 0.00 0.00 0.00 88 1020.3
20200330113804 28 77 0.0 0.0 0.00 0.00 0.00 88 1020.3
20200330113318 28 77 0.0 0.0 0.00 0.00 0.00 88 1020.2
20200330112731 28 77 0.0 0.0 0.00 0.00 0.00 88 1020.1
20200330112157 28 77 0.0 0.0 0.00 0.00 0.00 88 1020.0
20200330111715 28 77 0.0 0.0 0.00 0.00 0.00 88 1019.9
20200330111254 28 77 0.0 0.0 0.00 0.00 0.00 88 1019.9
20200330110624 28 77 0.0 0.0 0.00 0.00 0.00 88 1019.7
20200330110250 28 77 0.0 0.0 0.00 0.00 0.00 88 1019.8
20200330105657 28 77 0.0 0.0 0.00 0.00 0.00 88 1019.7
20200330105300 28 77 0.0 0.0 0.00 0.00 0.00 88 1019.8
20200330104644 28 77 0.0 0.0 0.00 0.00 0.00 88 1019.6
20200330104155 28 77 0.0 0.0 0.00 0.00 0.00 88 1019.6
20200330103812 28 77 0.0 0.0 0.00 0.00 0.00 87 1019.7
20200330103149 28 77 0.0 0.0 0.00 0.00 0.00 87 1019.6
20200330102719 29 77 0.0 0.0 0.00 0.00 0.00 87 1019.5
20200330102320 29 77 0.0 0.0 0.00 0.00 0.00 87 1019.4
20200330101742 29 77 0.0 0.0 0.00 0.00 0.00 87 1019.4
20200330101150 29 77 0.0 0.0 0.00 0.00 0.00 87 1019.4
20200330100655 29 77 0.0 0.0 0.00 0.00 0.00 87 1019.4
20200330100204 29 77 0.0 0.0 0.00 0.00 0.00 87 1019.4
20200330095702 29 77 0.0 0.0 0.00 0.00 0.00 86 1019.3
20200330095220 29 77 0.0 0.0 0.00 0.00 0.00 86 1019.2
20200330094702 29 77 0.0 0.0 0.00 0.00 0.00 86 1019.2
20200330094330 29 77 0.0 0.0 0.00 0.00 0.00 86 1019.1
20200330093711 29 77 0.0 0.0 0.00 0.00 0.00 86 1019.1
20200330093117 29 77 0.0 0.0 0.00 0.00 0.00 86 1018.9
20200330092741 30 77 0.0 0.0 0.00 0.00 0.00 86 1018.9
20200330092230 30 77 0.0 0.0 0.00 0.00 0.00 86 1018.9
20200330091807 30 77 0.0 0.0 0.00 0.00 0.00 85 1018.8
20200330091205 30 77 0.0 0.0 0.00 0.00 0.00 85 1018.8
20200330090814 30 77 0.0 0.0 0.00 0.00 0.00 85 1018.8
20200330090302 30 77 0.0 0.0 0.00 0.00 0.00 85 1018.6
20200330085702 30 77 0.0 0.0 0.00 0.00 0.00 85 1018.7
20200330085305 30 77 0.0 0.0 0.00 0.00 0.00 85 1018.7
20200330084642 30 77 0.0 0.0 0.00 0.00 0.00 84 1018.5
20200330084207 31 77 0.0 0.0 0.00 0.00 0.00 84 1018.5
20200330083751 31 77 0.0 0.0 0.00 0.00 0.00 84 1018.4
20200330083154 31 77 0.0 0.0 0.00 0.00 0.00 84 1018.3
20200330082756 31 77 0.0 0.0 0.00 0.00 0.00 84 1018.3
20200330082300 31 77 0.0 0.0 0.00 0.00 0.00 84 1018.2
20200330081751 31 77 0.0 0.0 0.00 0.00 0.00 84 1018.2
20200330081154 31 77 0.0 0.0 0.00 0.00 0.00 83 1018.1
20200330080742 31 77 0.0 0.0 0.00 0.00 0.00 83 1018.1
20200330080211 31 77 0.0 0.0 0.00 0.00 0.00 83 1018.0
20200330075722 32 77 0.0 0.0 0.00 0.00 0.00 83 1018.1
20200330075216 32 77 0.0 0.0 0.00 0.00 0.00 83 1018.1
20200330074822 32 77 0.0 0.0 0.00 0.00 0.00 82 1018.1
20200330074241 32 77 0.0 0.0 0.00 0.00 0.00 82 1018.1
20200330073802 32 77 0.0 0.0 0.00 0.00 0.00 82 1018.0
20200330073232 33 77 0.0 0.0 0.00 0.00 0.00 82 1017.8
20200330072717 33 77 0.0 0.0 0.00 0.00 0.00 81 1017.8
20200330072318 33 77 0.0 0.0 0.00 0.00 0.00 81 1017.8
20200330071746 33 77 0.0 0.0 0.00 0.00 0.00 81 1017.8
20200330071256 33 77 0.0 0.0 0.00 0.00 0.00 81 1017.8
20200330070756 33 77 0.0 0.0 0.00 0.00 0.00 81 1017.8
20200330070233 33 77 0.0 0.0 0.00 0.00 0.00 80 1017.7
20200330065819 34 77 0.0 0.0 0.00 0.00 0.00 80 1017.6
20200330065606 34 77 0.0 0.0 0.00 0.06 0.00 80 1017.6
20200330065053 34 77 0.0 0.0 0.00 0.00 0.00 80 1017.6
20200330064758 34 77 0.0 0.0 0.00 0.00 0.00 80 1017.6
20200330064301 34 77 0.0 0.0 0.00 0.00 0.00 80 1017.5
20200330063724 34 77 0.0 0.0 0.00 0.00 0.00 79 1017.4
20200330063149 35 77 0.0 0.0 0.00 0.00 0.00 79 1017.3
20200330062752 35 77 0.0 0.0 0.00 0.00 0.00 79 1017.2
20200330062319 35 77 0.0 0.0 0.00 0.00 0.00 79 1017.1
20200330061821 35 77 0.0 0.0 0.00 0.00 0.00 79 1017.1
20200330061319 35 77 0.0 0.0 0.00 0.00 0.00 78 1017.0
20200330060731 35 77 0.0 0.0 0.00 0.00 0.00 78 1016.9
20200330060303 36 77 0.0 0.0 0.00 0.00 0.00 77 1016.9
20200330055720 36 77 0.0 0.0 0.00 0.00 0.00 77 1017.0
20200330055306 36 77 0.0 0.0 0.00 0.00 0.00 77 1016.9
20200330054718 36 77 0.0 0.0 0.00 0.00 0.00 77 1017.0
20200330054243 37 77 0.0 0.0 0.00 0.00 0.00 77 1017.0
20200330053757 37 77 0.0 0.0 0.00 0.00 0.00 77 1016.9
20200330053247 37 77 0.0 0.0 0.00 0.00 0.00 77 1016.9
20200330052819 37 77 0.0 0.0 0.00 0.00 0.00 76 1016.8
20200330052245 37 77 0.0 0.0 0.00 0.00 0.00 76 1016.6
20200330051702 37 77 0.0 0.0 0.00 0.00 0.00 76 1016.5
20200330051252 37 77 0.0 0.0 0.00 0.00 0.00 76 1016.5
20200330050749 38 77 0.0 0.0 0.00 0.00 0.00 76 1016.4
20200330050219 38 77 0.0 0.0 0.00 0.00 0.00 76 1016.4
20200330045727 38 77 0.0 0.0 0.00 0.00 0.00 75 1016.3
20200330045205 38 77 0.0 0.0 0.00 0.00 0.00 75 1016.3
20200330044804 38 77 0.0 0.0 0.00 0.00 0.00 75 1016.3
20200330044236 38 77 0.0 0.0 0.00 0.00 0.00 75 1016.2
20200330043750 38 77 0.0 0.0 0.00 0.00 0.00 75 1016.2
20200330043152 38 77 0.0 0.0 0.00 0.00 0.00 74 1016.2
20200330042802 38 77 0.0 0.0 0.00 0.00 0.00 74 1016.1
20200330042318 38 77 0.0 0.0 0.00 0.00 0.00 74 1016.0
20200330041650 39 77 0.0 0.0 0.00 0.00 0.00 74 1016.0
20200330041237 39 77 0.0 0.0 0.00 0.00 0.00 74 1016.0
20200330040725 39 77 0.0 0.0 0.00 0.00 0.00 74 1016.0
20200330040251 39 77 0.0 0.0 0.00 0.00 0.00 73 1015.9
20200330035715 39 77 0.0 0.0 0.00 0.00 0.00 73 1015.8
20200330035257 40 77 0.0 0.0 0.00 0.00 0.00 73 1015.7
20200330034725 40 77 0.0 0.0 0.00 0.00 0.00 73 1015.7
20200330034219 40 77 0.0 0.0 0.00 0.00 0.00 73 1015.6
20200330033653 40 77 0.0 0.0 0.00 0.00 0.00 72 1015.5
20200330033250 40 77 0.0 0.0 0.00 0.00 0.00 72 1015.5
20200330032706 40 77 0.0 0.0 0.00 0.00 0.00 72 1015.4
20200330032214 40 77 0.0 0.0 0.00 0.00 0.00 72 1015.5
20200330031817 41 77 0.0 0.0 0.00 0.00 0.00 72 1015.4
20200330031234 41 77 0.0 0.0 0.00 0.00 0.00 72 1015.4
20200330030806 41 77 0.0 0.0 0.00 0.00 0.00 71 1015.3
20200330030308 41 77 0.0 0.0 0.00 0.00 0.00 71 1015.2
20200330025723 41 77 0.0 0.0 0.00 0.00 0.00 71 1015.2
20200330025231 41 77 0.0 2.0 0.00 0.00 0.00 71 1015.1
20200330024722 42 77 1.0 2.0 0.00 0.00 0.00 71 1015.1
20200330024155 42 77 1.0 2.0 0.00 0.00 0.00 71 1015.0
20200330023724 42 77 0.0 2.0 0.00 0.00 0.00 70 1015.0
20200330023223 43 77 0.0 0.0 0.00 0.00 0.00 70 1014.9
20200330022716 43 77 0.0 0.0 0.00 0.00 0.00 70 1015.0
20200330022144 43 77 0.0 0.0 0.00 0.00 0.00 69 1014.8
20200330021652 44 77 0.0 0.0 0.00 0.00 0.00 69 1014.7
20200330021225 44 77 0.0 0.0 0.00 0.00 0.00 68 1014.6
20200330020720 44 77 0.0 0.0 0.00 0.00 0.00 68 1014.5
20200330020217 45 77 0.0 0.0 0.00 0.00 0.00 67 1014.5
20200330015749 45 77 0.0 0.0 0.00 0.00 0.00 67 1014.5
20200330015157 45 77 0.0 0.0 0.00 0.00 0.00 66 1014.4
20200330014825 45 77 0.0 0.0 0.00 0.00 0.00 66 1014.4
20200330014211 46 77 0.0 0.0 0.00 0.00 0.00 66 1014.3
20200330013736 46 77 0.0 0.0 0.00 0.00 0.00 65 1014.2
20200330013330 46 77 0.0 0.0 0.00 0.00 0.00 64 1014.1
20200330012708 47 77 0.0 0.0 0.00 0.00 0.00 62 1014.0
20200330012200 47 77 0.0 0.0 0.00 0.00 0.00 60 1013.9
20200330011815 47 77 0.0 0.0 0.00 0.00 0.00 58 1013.9
20200330011326 48 77 0.0 0.0 0.00 0.00 0.00 57 1013.9
20200330010819 48 77 0.0 0.0 0.00 0.00 0.00 56 1013.8
20200330010230 49 77 0.0 0.0 0.00 0.00 0.00 56 1013.7
20200330005724 49 77 0.0 0.0 0.00 0.00 0.00 56 1013.7
20200330005153 49 77 0.0 1.0 0.00 0.00 0.00 54 1013.7
20200330004729 49 77 0.0 1.0 0.00 0.00 0.00 52 1013.6
20200330004246 49 77 1.0 2.0 0.00 0.00 0.00 52 1013.5
20200330003734 49 77 1.0 3.0 0.00 0.00 0.00 52 1013.3
20200330003147 49 77 2.0 4.0 0.00 0.00 0.00 52 1013.1
20200330002710 49 77 2.0 4.0 0.00 0.00 0.00 52 1013.0
20200330002317 49 76 1.0 4.0 0.00 0.00 0.00 52 1013.0
20200330001726 49 69 1.0 4.0 0.00 0.00 0.00 53 1012.9
20200330001250 49 74 1.0 4.0 0.00 0.00 0.00 55 1012.7